CST,Max TemperatureF,Mean TemperatureF,Min TemperatureF,Max Dew PointF,MeanDew PointF,Min DewpointF,Max Humidity, Mean Humidity, Min Humidity, Max Sea Level PressureIn, Mean Sea Level PressureIn, Min Sea Level PressureIn, Max VisibilityMiles, Mean VisibilityMiles, Min VisibilityMiles, Max Wind SpeedMPH, Mean Wind SpeedMPH, Max Gust SpeedMPH,PrecipitationIn, CloudCover, Events, WindDirDegrees
2013-2-1,3,-14,-32,-8,-23,-38,84,71,60,30.17,30.12,30.07,10,10,10,6,1,,0.00,2,,281
2013-2-2,8,-15,-38,-2,-22,-45,85,67,48,30.14,30.04,29.90,10,9,2,5,0,,0.00,3,Snow,216
2013-2-3,6,-10,-27,-2,-13,-35,85,75,60,30.01,29.96,29.88,10,9,2,10,3,17,0.00,3,Snow,308
2013-2-4,6,-14,-34,1,-15,-44,85,72,56,30.02,29.89,29.63,10,8,0,6,1,,0.00,6,Snow,184
2013-2-5,14,-2,-18,7,-6,-24,92,75,56,30.04,29.84,29.62,10,7,0,8,1,,0.06,4,Snow,328
2013-2-6,21,6,-9,12,4,-15,93,81,68,30.15,30.06,30.03,10,8,1,5,0,,0.01,8,Snow,25
2013-2-7,24,8,-7,16,1,-11,92,81,63,30.32,30.26,30.16,10,8,2,5,1,,0.00,5,Snow,352
2013-2-8,26,14,1,16,8,-2,93,80,59,30.35,30.29,30.18,10,7,2,8,1,,0.00,6,Snow,162
2013-2-9,24,20,15,23,18,12,93,87,79,30.18,30.01,29.95,10,6,2,12,4,18,0.00,8,,168
2013-2-10,28,26,23,27,23,21,100,93,86,29.97,29.74,29.33,10,4,0,16,2,29,0.23,8,Snow,34
2013-2-11,28,22,15,27,17,12,100,92,79,29.89,29.70,29.33,10,6,0,15,7,21,0.19,8,Snow,335
2013-2-12,30,16,1,23,14,0,93,87,64,29.88,29.76,29.65,10,10,3,8,3,,0.02,5,Snow,195
2013-2-13,32,16,1,28,16,0,100,89,80,29.67,29.63,29.61,10,10,7,5,0,,0.00,6,Snow,255
2013-2-14,23,13,3,21,7,-6,93,75,49,30.10,29.93,29.68,10,10,2,12,5,17,0.00,5,Snow,338
2013-2-15,12,-3,-20,0,-10,-26,92,71,52,30.23,30.19,30.10,10,10,3,13,2,20,0.00,3,Snow,325
2013-2-16,19,-4,-27,7,-17,-33,84,66,38,30.19,30.14,30.06,10,10,2,5,0,,0.00,2,,301
2013-2-17,24,2,-20,18,3,-27,92,77,58,30.06,29.81,29.61,10,8,1,14,3,20,0.02,6,Snow,160
2013-2-18,24,12,1,21,14,-6,93,82,72,29.85,29.62,29.52,10,5,0,15,5,24,0.17,8,Snow,335
2013-2-19,6,-2,-9,-6,-10,-15,84,72,56,30.39,30.12,29.86,10,9,4,17,11,28,0.00,4,Snow,335
2013-2-20,15,-6,-27,-4,-18,-33,84,62,34,30.52,30.48,30.40,10,10,7,6,2,,0.00,0,,329
2013-2-21,26,0,-25,3,-14,-33,84,59,34,30.53,30.43,30.29,10,10,10,6,1,,0.00,0,,16
2013-2-22,33,22,12,25,17,7,93,82,69,30.15,29.98,29.88,10,9,3,7,1,,0.00,8,Snow,44
2013-2-23,35,19,1,21,12,-2,93,75,52,29.91,29.85,29.81,10,9,2,7,1,,0.00,3,Snow,14
2013-2-24,42,18,-7,27,7,-11,92,72,45,30.03,30.00,29.92,10,10,10,5,0,,0.00,1,,328
2013-2-25,30,16,3,25,12,0,93,83,74,30.05,30.03,30.00,10,10,10,8,1,,0.00,6,,187
2013-2-26,46,21,-4,30,9,-8,92,72,34,30.09,30.04,30.01,10,10,7,5,0,,0.00,0,,321
2013-2-27,35,18,0,23,13,-4,92,76,56,30.15,30.05,30.00,10,10,10,10,3,17,0.00,4,,11
2013-2-28,30,20,10,18,10,1,86,65,43,30.36,30.26,30.15,10,10,10,9,5,,0.00,3,,5